Regional Weather Roundup
Issued by NWS Goodland, KS

Home | Current Version | Previous Version | Graphics & Text | Print | Product List | Glossary On
Versions: 1 2 3 4 5 6 7 8 9 10 11 12 13 14 15 16 17 18 19 20 21 22 23 24 25 26 27 28 29 30 31 32 33 34 35 36 37 38 39 40 41 42 43 44 45 46 47 48 49 50
000
ASUS43 KGLD 252259
RWRGLD

GOODLAND FORECAST AREA HOURLY WEATHER ROUNDUP
NATIONAL WEATHER SERVICE GOODLAND KS
400 PM MST SUN JAN 25 2015

...OFFICIAL OBSERVATIONS...

CITY           SKY/WX    TMP DP  RH WIND       PRES   REMARKS
GOODLAND KS    CLEAR     51  31  46 NW8       30.09S
HILL CITY KS   CLEAR     51  23  33 N12       30.10R
IMPERIAL NEB   CLOUDY    52  32  46 NW15      30.07R
MCCOOK NEB     CLEAR     54  16  22 N9        30.06R
AKRON CO       CLEAR     50  32  50 W7        30.10R
BURLINGTON CO  PTCLDY    54  32  43 N9        30.11R
LIMON CO       SUNNY     53  26  35 N7        30.14R
$$

...UNOFFICIAL OBSERVATIONS...

CITY           SKY/WX    TMP DP  RH WIND       PRES   REMARKS
COLBY KS       CLEAR     54  28  37 NW10G17   30.09S
GOVE KS          N/A     54  32  43 MISG        N/A
NORTON KS      CLEAR     48  19  32 N9        30.07S
SHARON SPRINGS   N/A     54  33  44 N13         N/A
KIT CARSON CO    N/A     57  30  36 MISG        N/A
YUMA CO          N/A     53  34  48 N10         N/A
$$


USA.gov is the U.S. government's official web portal to all federal, state and local government web resources and services.